This is the latest recevied weather packets stored in our database for station/object JH0KSP-13. If no packets are shown the sender has not sent any weather packets the latest 10 day(s).
| Time | Temp. | Humidity | Pressure | Rain* | Wind** | Luminosity | Snow |
|---|---|---|---|---|---|---|---|
| 1778274419 | 11.11° C | 62% | 1011.3 hPa | 0 mm | - | - | - |
| 1778274008 | 11.11° C | 62% | 1011.1 hPa | 0 mm | - | - | - |
| 1778273216 | 10° C | 61% | 1010.6 hPa | 0 mm | - | - | - |
| 1778272809 | 10° C | 64% | 1010.4 hPa | 0 mm | - | - | - |
| 1778272208 | 10° C | 64% | 1010.4 hPa | 0 mm | - | - | - |
| 1778272016 | 10° C | 64% | 1010.4 hPa | 0 mm | - | - | - |
| 1778271608 | 10° C | 63% | 1010.3 hPa | 0 mm | - | - | - |
| 1778271009 | 11.11° C | 62% | 1010.4 hPa | 0 mm | - | - | - |
| 1778270817 | 11.11° C | 62% | 1010.4 hPa | 0 mm | - | - | - |
| 1778270410 | 11.11° C | 61% | 1010.4 hPa | 0 mm | - | - | - |
| 1778269810 | 11.11° C | 60% | 1010.3 hPa | 0 mm | - | - | - |
| 1778269616 | 11.11° C | 60% | 1010.2 hPa | 0 mm | - | - | - |
| 1778269208 | 11.11° C | 61% | 1010.1 hPa | 0 mm | - | - | - |
| 1778268608 | 11.11° C | 61% | 1010.1 hPa | 0 mm | - | - | - |
| 1778268417 | 10° C | 60% | 1010.1 hPa | 0 mm | - | - | - |
| 1778268009 | 11.11° C | 61% | 1010.1 hPa | 0 mm | - | - | - |
| 1778267408 | 11.11° C | 58% | 1010.1 hPa | 0 mm | - | - | - |
| 1778267216 | 11.11° C | 58% | 1010 hPa | 0 mm | - | - | - |
| 1778266808 | 11.11° C | 58% | 1010.2 hPa | 0 mm | - | - | - |
| 1778266209 | 11.11° C | 57% | 1010.2 hPa | 0 mm | - | - | - |
| 1778266017 | 11.11° C | 57% | 1010.3 hPa | 0 mm | - | - | - |
| 1778265610 | 11.11° C | 57% | 1010 hPa | 0 mm | - | - | - |
| 1778265009 | 11.11° C | 55% | 1010 hPa | 0 mm | - | - | - |
| 1778264816 | 11.11° C | 54% | 1009.9 hPa | 0 mm | - | - | - |
| 1778264408 | 11.11° C | 54% | 1009.8 hPa | 0 mm | - | - | - |
* Rain latest hour (hover to see other rain measurements)
** Current wind speed in m/s (hover to see current wind gust speed)